Weather History for Bamako, Mali

Change the Weather History Date:

Saturday, January 12, 2013

  Actual Average Record
Temperature  
Mean Temperature 74 °F -  
Max Temperature 89 °F 93 °F 95 °F (1997)
Min Temperature 60 °F 65 °F 60 °F (2001)
Cooling Degree Days 10    
Growing Degree Days 24 (Base 50)    
Moisture  
Dew Point 34 °F    
Average Humidity 24    
Maximum Humidity 48    
Minimum Humidity 10    
Precipitation  
Precipitation 0.00 in 0.00 in - ()
Sea Level Pressure  
Sea Level Pressure 29.94 in    
Wind  
Wind Speed 8 mph ()    
Max Wind Speed 15 mph    
Max Gust Speed -    
Visibility 5.1 miles    
Events      
Averages and records for this station are not official NWS values.
T = Trace of Precipitation, MM = Missing Value Source: Averaged Metar Reports

Daily Weather History Graph

Daily Weather History Graph

Search for Another Location

Airport:

Trip Planner

Search our weather history database for the weather conditions in past years. The results will help you decide how hot, cold, wet, or windy it might be!

Date:

Astronomy

Jan. 12, 2013 Rise Set
Actual Time 6:56 AM GMT 6:23 PM GMT
Civil Twilight 6:33 AM GMT 6:46 PM GMT
Nautical Twilight 6:07 AM GMT 7:12 PM GMT
Astronomical Twilight 5:41 AM GMT 7:38 PM GMT
Moon 7:19 AM GMT (1/12) 7:18 PM GMT (1/12)
Length of Visible Light 12h 12m
Length of Day
11h 27m
New Moon, 1% of the Moon is Illuminated
Jan 12
New Moon
Jan 18
First Quarter
Jan 27
Full
Feb 3
Last Quarter
Feb 10
New

Hourly Weather History & Observations

Time (GMT) Temp. Dew Point Humidity Pressure Visibility Wind Dir Wind Speed Gust Speed Precip Events Conditions
12:00 AM 73 °F 36 °F 16% 29.85 in 6 mi East 6.9 mph - -   Partly Cloudy
12:00 AM 69.8 °F 35.6 °F 28% 29.95 in - ENE 9.2 mph - N/A   Clear
12:30 AM 69.8 °F 35.6 °F 28% 29.95 in - ENE 6.9 mph - N/A   Clear
1:00 AM 68.0 °F 35.6 °F 30% 29.95 in - ENE 8.1 mph - N/A   Clear
1:30 AM 68.0 °F 35.6 °F 30% 29.95 in - ENE 6.9 mph - N/A   Clear
2:00 AM 64.4 °F 35.6 °F 34% 29.95 in - ENE 8.1 mph - N/A   Clear
2:30 AM 64.4 °F 35.6 °F 34% 29.95 in - ENE 6.9 mph - N/A   Clear
3:00 AM 69 °F 36 °F 19% 29.83 in 6 mi East 6.9 mph - -   Clear
3:00 AM 62.6 °F 37.4 °F 39% 29.92 in - ENE 6.9 mph - N/A   Clear
3:30 AM 62.6 °F 37.4 °F 39% 29.92 in - ENE 6.9 mph - N/A   Clear
4:30 AM 60.8 °F 39.2 °F 45% 29.92 in - ENE 6.9 mph - N/A   Clear
5:00 AM 60.8 °F 39.2 °F 45% 29.95 in - ENE 8.1 mph - N/A   Unknown
5:30 AM 60.8 °F 39.2 °F 45% 29.95 in - NNE 3.5 mph - N/A   Clear
6:00 AM 67 °F 40 °F 25% 29.84 in 6 mi ENE 6.9 mph - -   Clear
6:00 AM 62.6 °F 41.0 °F 45% 29.95 in - ENE 8.1 mph - N/A   Clear
6:30 AM 60.8 °F 41.0 °F 48% 29.95 in - NE 4.6 mph - N/A   Clear
7:00 AM 62.6 °F 41.0 °F 45% 29.98 in - NE 5.8 mph - N/A   Clear
7:30 AM 62.6 °F 41.0 °F 45% 29.98 in - NE 3.5 mph - N/A   Clear
8:00 AM 69.8 °F 37.4 °F 31% 29.98 in - ENE 5.8 mph - N/A   Clear
8:30 AM 69.8 °F 37.4 °F 31% 30.01 in - NE 5.8 mph - N/A   Clear
9:00 AM 75.2 °F 37.4 °F 25% 30.01 in 5.0 mi NE 8.1 mph - N/A   Unknown
9:30 AM 77.0 °F 33.8 °F 21% 30.01 in 5.0 mi ENE 11.5 mph - N/A   Unknown
10:00 AM 80.6 °F 35.6 °F 20% 30.01 in 5.0 mi ENE 11.5 mph - N/A   Unknown
10:30 AM 80.6 °F 33.8 °F 18% 30.01 in 5.0 mi ENE 15.0 mph - N/A   Unknown
11:00 AM 84.2 °F 35.6 °F 18% 30.01 in 5.0 mi East 13.8 mph - N/A   Unknown
11:30 AM 86.0 °F 32.0 °F 14% 29.98 in 5.0 mi East 15.0 mph - N/A   Unknown
12:00 PM 86.0 °F 30.2 °F 13% 29.98 in 5.0 mi East 15.0 mph - N/A   Unknown
12:30 PM 89.6 °F 32.0 °F 13% 29.98 in 5.0 mi East 12.7 mph - N/A   Unknown
1:00 PM 87.8 °F 30.2 °F 13% 29.95 in 5.0 mi East 11.5 mph - N/A   Unknown
1:30 PM 89.6 °F 30.2 °F 12% 29.92 in 5.0 mi East 11.5 mph - N/A   Unknown
2:00 PM 89.6 °F 30.2 °F 12% 29.92 in - ENE 12.7 mph - N/A   Clear
2:30 PM 89.6 °F 26.6 °F 10% 29.92 in - ENE 11.5 mph - N/A   Clear
3:00 PM 89.6 °F 28.4 °F 11% 29.89 in - ENE 11.5 mph - N/A   Clear
3:30 PM 89.6 °F 28.4 °F 11% 29.89 in - East 10.4 mph - N/A   Clear
4:00 PM 89.6 °F 28.4 °F 11% 29.89 in - ENE 10.4 mph - N/A   Clear
4:30 PM 89.6 °F 30.2 °F 12% 29.89 in - ENE 11.5 mph - N/A   Clear
5:00 PM 89.6 °F 28.4 °F 11% 29.89 in - ENE 11.5 mph - N/A   Clear
5:30 PM 86.0 °F 28.4 °F 12% 29.92 in - ENE 8.1 mph - N/A   Clear
6:00 PM 84.2 °F 32.0 °F 15% 29.92 in - ENE 8.1 mph - N/A   Clear
6:30 PM 80.6 °F 32.0 °F 17% 29.92 in - ENE 5.8 mph - N/A   Clear
7:00 PM 77.0 °F 33.8 °F 21% 29.92 in 5.0 mi ENE 6.9 mph - N/A   Unknown
7:30 PM 75.2 °F 33.8 °F 22% 29.92 in 5.0 mi ENE 8.1 mph - N/A   Unknown
8:00 PM 77.0 °F 33.8 °F 21% 29.92 in 5.0 mi ENE 8.1 mph - N/A   Unknown
8:30 PM 77.0 °F 35.6 °F 22% 29.92 in 5.0 mi NE 8.1 mph - N/A   Unknown
9:00 PM 77.0 °F 30.2 °F 18% 29.95 in 5.0 mi NE 8.1 mph - N/A   Unknown
9:30 PM 77.0 °F 30.2 °F 18% 29.95 in 5.0 mi NE 9.2 mph - N/A   Unknown
10:00 PM 78.8 °F 30.2 °F 17% 29.95 in 5.0 mi NE 9.2 mph - N/A   Unknown
10:30 PM 77.0 °F 30.2 °F 18% 29.95 in 5.0 mi NE 9.2 mph - N/A   Unknown
11:00 PM 77.0 °F 30.2 °F 18% 29.95 in 5.0 mi NE 9.2 mph - N/A   Unknown
11:30 PM 75.2 °F 30.2 °F 19% 29.95 in 5.0 mi NE 6.9 mph - N/A   Unknown